Location: Bouillancy
(49.1149°N, 2.9308°E)
Time: 08:38:37
(UTC+00:00)

Resurs 1-3 - Pass Details

Date: 30 September 2020
Orbit: 631 x 632 km, 97.9° (Epoch: 29 October)

Event Time Altitude Azimuth Distance (km) Brightness Sun altitude
Exits shadow 19:22:58 40° 76° (ENE) 943 4.0 -19.3°
Maximum altitude 19:23:11 40° 68° (ENE) 938 4.1 -19.4°
Drops below altitude 10° 19:27:18 10° 360° (N) 2,025 6.4 -20.0°
Sets 19:29:36 0° 353° (N) 2,938 7.4 -20.4°
